SCP
0 0 0 0 0 0 0 0 0 0 0 0 0 0 0 0 0 0 0 0 0 0
0 0 0 0 0 0 0 0 0 0 0 0 0 0 0 0 0 0 0 0 0 0
0 0 0 0 0 0 0 0 0 0 0 0 0 0 0 0 0 0 0 0 0 0
0 0 0 0 0 0 0 0 0 0 0 0 0 0 0 0 0 0 0 0 0 0
0 0 0 0 0 0 0 0 0 0 0 0 0 0 0 0 0 0 0 0 0 0
0 0 0 0 0 0 0 0 0 0 0 0 0 0 0 0 0 0 0 0 0 0
0 0 0 0 0 0 0 0 0 0 0 0 0 0 0 0 0 0 0 0 0 0
0 0 0 0 0 0 0 0 0 0 0 0 0 0 0 0 0 0 0 0 0 0
0 0 0 0 0 0 0 0 0 0 0 -0 0 0 0 0 0 0 0 0 0 0
0 0 0 0 0 0 0 0 0 0 0 0 0 0 0 0 0 0 0 0 0 0
0 0 0 0 0 0 0 0 0 0 0 0 0 0 0 0 0 0 0 0 0 0
-0 -0 0 0 0 0 0 0 0 0 0 0 0 0 0 0 0 0 0 0 0 0
-0 0 0 0 0 0 0 0 0 0 0 0 0 0 0 0 0 0 0 0 0 0
0 0 0 0 0 0 0 0 0 0 0 0 0 0 0 0 0 0 0 0 0 0
Wind_Speed_500mb
34 39 42 45 50 53 56 62 66 69 73 75 77 82 85 92 96 99 106 107 109 112
30 33 37 42 46 51 54 58 62 66 74 76 77 79 83 90 93 93 98 102 103 107
30 31 33 36 42 47 53 58 60 60 62 67 75 79 82 92 98 101 104 107 108 108
30 32 33 34 35 38 41 45 53 60 63 62 66 71 77 85 90 95 101 106 106 110
25 27 30 33 35 38 41 41 44 47 54 61 65 66 69 77 85 90 98 103 102 105
25 29 32 35 38 40 43 44 45 48 50 52 57 63 66 70 75 80 90 96 99 107
28 32 36 39 43 47 49 51 52 52 53 55 56 57 60 64 68 74 81 86 95 102
28 32 37 43 47 51 53 54 57 58 59 60 59 58 58 58 64 72 77 80 85 94
32 37 43 50 55 58 60 62 64 65 66 66 65 62 59 59 65 68 75 87 91 91
40 48 53 59 64 67 69 73 75 76 77 80 78 73 70 67 69 75 78 79 86 95
51 57 62 68 72 76 76 80 83 85 87 89 91 88 82 80 80 82 84 83 84 88
60 68 72 78 83 82 82 85 86 90 93 95 98 98 95 86 88 90 90 92 93 91
69 76 85 90 92 90 89 94 95 99 98 99 104 100 97 89 88 92 92 93 96 101
79 87 94 97 97 98 100 102 103 107 108 107 106 106 102 92 85 82 91 96 100 98
Wind_Direction_500mb
249 256 263 270 275 280 281 282 285 286 287 287 288 284 281 280 278 277 276 275 274 274
259 261 262 262 264 270 275 279 281 282 283 285 285 284 282 281 280 280 280 279 278 276
277 280 279 279 279 279 277 277 277 280 280 278 279 281 282 282 281 281 281 279 279 277
280 286 291 294 296 299 302 300 291 286 283 282 281 279 277 279 282 281 278 275 273 277
289 293 295 295 297 300 301 304 309 309 300 291 287 284 278 277 277 278 279 279 278 275
292 299 302 302 304 306 307 307 305 304 307 308 300 292 289 282 277 275 275 278 276 275
294 307 313 312 309 307 308 308 307 307 307 306 306 308 303 297 289 282 278 275 276 277
304 315 320 320 317 313 310 309 307 306 305 305 307 311 314 312 300 292 285 280 276 275
303 316 323 324 323 317 311 311 311 311 310 307 305 309 312 313 305 299 291 287 283 277
310 314 317 316 318 318 314 310 309 309 308 307 308 312 314 314 307 302 298 295 291 285
304 309 313 313 316 315 312 309 308 305 304 302 304 308 312 314 309 304 300 299 297 291
303 307 309 309 312 311 309 306 304 300 299 299 297 302 307 312 308 304 302 301 299 299
301 303 305 306 307 306 304 302 299 297 297 298 296 300 305 308 305 302 301 298 297 298
296 300 301 302 301 301 301 299 298 297 298 298 299 298 301 302 300 301 300 297 297 297
Wind_Speed_850mb
34 39 42 45 50 53 56 62 66 69 73 75 77 82 85 92 96 99 106 107 109 112
30 33 37 42 46 51 54 58 62 66 74 76 77 79 83 90 93 93 98 102 103 107
30 31 33 36 42 47 53 58 60 60 62 67 75 79 82 92 98 101 104 107 108 108
30 32 33 34 35 38 41 45 53 60 63 62 66 71 77 85 90 95 101 106 106 110
25 27 30 33 35 38 41 41 44 47 54 61 65 66 69 77 85 90 98 103 102 105
25 29 32 35 38 40 43 44 45 48 50 52 57 63 66 70 75 80 90 96 99 107
28 32 36 39 43 47 49 51 52 52 53 55 56 57 60 64 68 74 81 86 95 102
28 32 37 43 47 51 53 54 57 58 59 60 59 58 58 58 64 72 77 80 85 94
32 37 43 50 55 58 60 62 64 65 66 66 65 62 59 59 65 68 75 87 91 91
40 48 53 59 64 67 69 73 75 76 77 80 78 73 70 67 69 75 78 79 86 95
51 57 62 68 72 76 76 80 83 85 87 89 91 88 82 80 80 82 84 83 84 88
60 68 72 78 83 82 82 85 86 90 93 95 98 98 95 86 88 90 90 92 93 91
69 76 85 90 92 90 89 94 95 99 98 99 104 100 97 89 88 92 92 93 96 101
79 87 94 97 97 98 100 102 103 107 108 107 106 106 102 92 85 82 91 96 100 98
Wind_Direction_850mb
249 256 263 270 275 280 281 282 285 286 287 287 288 284 281 280 278 277 276 275 274 274
259 261 262 262 264 270 275 279 281 282 283 285 285 284 282 281 280 280 280 279 278 276
277 280 279 279 279 279 277 277 277 280 280 278 279 281 282 282 281 281 281 279 279 277
280 286 291 294 296 299 302 300 291 286 283 282 281 279 277 279 282 281 278 275 273 277
289 293 295 295 297 300 301 304 309 309 300 291 287 284 278 277 277 278 279 279 278 275
292 299 302 302 304 306 307 307 305 304 307 308 300 292 289 282 277 275 275 278 276 275
294 307 313 312 309 307 308 308 307 307 307 306 306 308 303 297 289 282 278 275 276 277
304 315 320 320 317 313 310 309 307 306 305 305 307 311 314 312 300 292 285 280 276 275
303 316 323 324 323 317 311 311 311 311 310 307 305 309 312 313 305 299 291 287 283 277
310 314 317 316 318 318 314 310 309 309 308 307 308 312 314 314 307 302 298 295 291 285
304 309 313 313 316 315 312 309 308 305 304 302 304 308 312 314 309 304 300 299 297 291
303 307 309 309 312 311 309 306 304 300 299 299 297 302 307 312 308 304 302 301 299 299
301 303 305 306 307 306 304 302 299 297 297 298 296 300 305 308 305 302 301 298 297 298
296 300 301 302 301 301 301 299 298 297 298 298 299 298 301 302 300 301 300 297 297 297